Weather History for Lubbock, TX

Change the Weather History Date:

Sunday, March 31, 2013

  Actual Average Record
Temperature  
Mean Temperature 61 °F 56 °F  
Max Temperature 71 °F 71 °F 95 °F (1946)
Min Temperature 50 °F 41 °F 19 °F (1931)
Degree Days  
Heating Degree Days 4 10  
Month to date heating degree days 356 415  
Since 1 July heating degree days 2886 3154  
Cooling Degree Days 0 1  
Month to date cooling degree days 2 7  
Year to date cooling degree days 2 7  
Growing Degree Days 10 (Base 50)    
Moisture  
Dew Point 42 °F    
Average Humidity 53    
Maximum Humidity 74    
Minimum Humidity 31    
Precipitation  
Precipitation 0.00 in 0.04 in 1.04 in (1916)
Month to date precipitation T 1.10  
Year to date precipitation 2.23 2.50  
Snow  
Snow 0.00 in 0.00 in - ()
Month to date snowfall 0.0 0.6  
Since 1 July snowfall 3.7 8.0  
Snow Depth 0.00 in    
Sea Level Pressure  
Sea Level Pressure 29.92 in    
Wind  
Wind Speed 9 mph (East)    
Max Wind Speed 35 mph    
Max Gust Speed 44 mph    
Visibility 9 miles    
Events      
T = Trace of Precipitation, MM = Missing Value Source: NWS Daily Summary

Daily Weather History Graph

Daily Weather History Graph

Search for Another Location

Airport:

Trip Planner

Search our weather history database for the weather conditions in past years. The results will help you decide how hot, cold, wet, or windy it might be!

Date:

Astronomy

Mar. 31, 2013 Rise Set
Actual Time 7:35 AM CDT 8:07 PM CDT
Civil Twilight 7:10 AM CDT 8:32 PM CDT
Nautical Twilight 6:41 AM CDT 9:01 PM CDT
Astronomical Twilight 6:11 AM CDT 9:31 PM CDT
Moon 12:03 AM CDT (3/31) 10:37 AM CDT (3/31)
Length of Visible Light 13h 21m
Length of Day
12h 31m
Waning Gibbous, 77% of the Moon is Illuminated
Mar 31
Waning Gibbous
Apr 2
Last Quarter
Apr 10
New
Apr 18
First Quarter
Apr 25
Full

Hourly Weather History & Observations

Time (CDT) Temp. Dew Point Humidity Pressure Visibility Wind Dir Wind Speed Gust Speed Precip Events Conditions
12:53 AM 60.1 °F 43.0 °F 53% 29.81 in 10.0 mi SE 10.4 mph - N/A   Partly Cloudy
1:53 AM 60.1 °F 45.0 °F 57% 29.80 in 10.0 mi SSE 9.2 mph - N/A   Partly Cloudy
2:53 AM 57.9 °F 44.1 °F 60% 29.80 in 10.0 mi South 4.6 mph - N/A   Mostly Cloudy
3:53 AM 55.9 °F 44.1 °F 64% 29.78 in 10.0 mi Calm Calm - N/A   Mostly Cloudy
4:53 AM 53.1 °F 42.1 °F 66% 29.78 in 10.0 mi Calm Calm - N/A   Mostly Cloudy
5:34 AM 57.2 °F 44.6 °F 63% 29.95 in 3.0 mi NNE 29.9 mph 41.4 mph N/A   Haze
5:44 AM 53.6 °F 44.6 °F 72% 29.97 in 3.0 mi NNE 34.5 mph 43.7 mph N/A   Haze
5:53 AM 53.1 °F 44.1 °F 71% 29.85 in 6.0 mi NE 31.1 mph 43.7 mph N/A   Haze
6:53 AM 50.0 °F 43.0 °F 77% 29.89 in 10.0 mi NE 25.3 mph 39.1 mph N/A   Scattered Clouds
7:53 AM 50.0 °F 43.0 °F 77% 29.95 in 10.0 mi NE 16.1 mph - N/A   Mostly Cloudy
8:53 AM 53.1 °F 42.1 °F 66% 29.99 in 10.0 mi NNE 13.8 mph - N/A   Mostly Cloudy
9:53 AM 55.9 °F 43.0 °F 62% 30.00 in 10.0 mi ENE 11.5 mph - N/A   Mostly Cloudy
10:53 AM 59.0 °F 43.0 °F 55% 30.02 in 10.0 mi ENE 9.2 mph - N/A   Mostly Cloudy
11:53 AM 64.0 °F 43.0 °F 46% 30.02 in 10.0 mi NE 9.2 mph - N/A   Mostly Cloudy
12:53 PM 64.9 °F 39.9 °F 40% 30.02 in 10.0 mi NE 9.2 mph 18.4 mph N/A   Mostly Cloudy
1:53 PM 66.9 °F 39.9 °F 37% 30.00 in 10.0 mi East 5.8 mph 17.3 mph N/A   Scattered Clouds
2:53 PM 69.1 °F 39.9 °F 35% 29.98 in 10.0 mi Variable 5.8 mph - N/A   Mostly Cloudy
3:53 PM 68.0 °F 39.9 °F 36% 29.95 in 10.0 mi Variable 3.5 mph - N/A   Partly Cloudy
4:53 PM 71.1 °F 39.9 °F 32% 29.93 in 10.0 mi East 4.6 mph - N/A   Partly Cloudy
5:53 PM 70.0 °F 39.9 °F 33% 29.91 in 10.0 mi SSE 5.8 mph - N/A   Partly Cloudy
6:53 PM 69.1 °F 39.9 °F 35% 29.91 in 10.0 mi Calm Calm - N/A   Partly Cloudy
7:53 PM 68.0 °F 39.9 °F 36% 29.92 in 10.0 mi Calm Calm - N/A   Clear
8:53 PM 62.1 °F 39.0 °F 43% 29.93 in 10.0 mi SE 6.9 mph - N/A   Clear
9:53 PM 60.1 °F 39.0 °F 46% 29.95 in 10.0 mi SE 9.2 mph - N/A   Clear
10:53 PM 57.0 °F 39.9 °F 53% 29.96 in 10.0 mi ESE 10.4 mph - N/A   Clear
11:53 PM 55.9 °F 41.0 °F 57% 29.95 in 10.0 mi SSE 11.5 mph - N/A   Clear